Back to catalog

SHIYAN-33

AliveMilitarySSO
NORAD 68405·PAYLOAD·🇨🇳 China

Launched Mar 27, 2026 from Jiuquan Satellite Launch Center

Loading…

Next Passes (next 24 hours)

TLE

FreshSource: Space-Track

Epoch: Sep 14, 2026, 15:14 UTC

1 68405U 26064A   26257.63474781  .00003809  00000-0  15006-3 0  9998
2 68405  97.4547 332.7999 0025438 349.7303  10.3412 15.25929308 26120

Track SHIYAN-33 in real time with AllMySat

Download on the App Store